Weather History for KAGS - January, 2014

Change the Weather History Date:

Sunday, January 26, 2014

  Actual Average Record
Temperature  
Mean Temperature 42 °F 46 °F  
Max Temperature 58 °F 59 °F 80 °F (1950)
Min Temperature 26 °F 33 °F 13 °F (1940)
Degree Days  
Heating Degree Days 23 19  
Month to date heating degree days 641 515  
Since 1 July heating degree days 1558 1490  
Cooling Degree Days 0 0  
Month to date cooling degree days 0 0  
Year to date cooling degree days 0 0  
Moisture  
Dew Point 25 °F    
Average Humidity 54    
Maximum Humidity 75    
Minimum Humidity 32    
Precipitation  
Precipitation 0.00 in 0.12 in 1.57 in (2004)
Month to date precipitation 2.22 3.25  
Year to date precipitation 2.22 3.25  
Sea Level Pressure  
Sea Level Pressure 29.98 in    
Wind  
Wind Speed 6 mph (SW)    
Max Wind Speed 15 mph    
Max Gust Speed 22 mph    
Visibility 10 miles    
Events      
T = Trace of Precipitation, MM = Missing Value Source: NWS Daily Summary

Daily Weather History Graph

Daily Weather History Graph

Search for Another Location

Airport or City:

Trip Planner

Search our weather history database for the weather conditions in past years. The results will help you decide how hot, cold, wet, or windy it might be!

Date:

Astronomy

Jan. 26, 2014 Rise Set
Actual Time 7:27 AM EST 5:53 PM EST
Civil Twilight 7:01 AM EST 6:20 PM EST
Nautical Twilight 6:31 AM EST 6:50 PM EST
Astronomical Twilight 6:01 AM EST 7:19 PM EST
Moon 3:02 AM EST (1/26) 1:43 PM EST (1/26)
Length of Visible Light 11h 19m
Length of Day
10h 26m
Waning Crescent, 24% of the Moon is Illuminated
Jan 26
Waning Crescent
Jan 30
New
Feb 6
First Quarter
Feb 14
Full
Feb 22
Last Quarter

Hourly Weather History & Observations

Time (EST) Temp. Windchill Dew Point Humidity Pressure Visibility Wind Dir Wind Speed Gust Speed Precip Events Conditions
12:53 AM 37.0 °F 32.4 °F 19.0 °F 48% 29.98 in 10.0 mi WSW 5.8 mph - N/A   Clear
1:53 AM 33.1 °F 27.7 °F 19.0 °F 56% 29.98 in 10.0 mi WSW 5.8 mph - N/A   Clear
2:53 AM 33.1 °F 27.7 °F 19.9 °F 59% 29.97 in 10.0 mi West 5.8 mph - N/A   Clear
3:53 AM 30.9 °F 26.2 °F 19.9 °F 64% 29.99 in 10.0 mi West 4.6 mph - N/A   Clear
4:53 AM 27.0 °F - 19.9 °F 75% 29.99 in 10.0 mi Calm Calm - N/A   Clear
5:53 AM 28.0 °F - 19.9 °F 72% 29.99 in 10.0 mi Calm Calm - N/A   Clear
6:53 AM 34.0 °F 28.0 °F 21.0 °F 59% 30.01 in 10.0 mi WSW 6.9 mph - N/A   Clear
7:53 AM 33.1 °F - 19.9 °F 59% 30.02 in 10.0 mi Calm Calm - N/A   Clear
8:53 AM 37.0 °F - 23.0 °F 57% 30.04 in 10.0 mi Calm Calm - N/A   Clear
9:53 AM 42.1 °F 38.4 °F 24.1 °F 49% 30.05 in 10.0 mi SW 5.8 mph - N/A   Clear
10:53 AM 48.0 °F - 24.1 °F 39% 30.05 in 10.0 mi WNW 5.8 mph - N/A   Clear
11:53 AM 52.0 °F - 24.1 °F 34% 30.03 in 10.0 mi West 11.5 mph 19.6 mph N/A   Clear
12:53 PM 54.0 °F - 26.1 °F 34% 29.99 in 10.0 mi WSW 12.7 mph 20.7 mph N/A   Clear
1:53 PM 55.9 °F - 27.0 °F 33% 29.96 in 10.0 mi SW 11.5 mph - N/A   Clear
2:53 PM 57.0 °F - 28.0 °F 33% 29.94 in 10.0 mi WSW 12.7 mph 21.9 mph N/A   Clear
3:53 PM 55.9 °F - 28.0 °F 34% 29.94 in 10.0 mi SSW 10.4 mph - N/A   Clear
4:53 PM 55.0 °F - 28.0 °F 35% 29.94 in 10.0 mi WSW 6.9 mph - N/A   Clear
5:53 PM 50.0 °F - 28.0 °F 43% 29.94 in 10.0 mi South 5.8 mph - N/A   Clear
6:53 PM 48.9 °F - 30.0 °F 48% 29.95 in 10.0 mi South 3.5 mph - N/A   Clear
7:53 PM 44.1 °F - 30.9 °F 60% 29.96 in 10.0 mi Calm Calm - N/A   Clear
8:53 PM 43.0 °F 39.5 °F 30.9 °F 62% 29.96 in 10.0 mi SSW 5.8 mph - N/A   Clear
9:53 PM 46.9 °F - 30.9 °F 54% 29.96 in 10.0 mi SSW 6.9 mph - N/A   Clear
10:53 PM 46.9 °F - 30.9 °F 54% 29.97 in 10.0 mi South 5.8 mph - N/A   Clear
11:53 PM 46.0 °F - 30.9 °F 56% 29.96 in 10.0 mi Calm Calm - N/A   Clear